| time (UTC) | temp C | wind direction | speed KPH | gust KPH | rain 1hr cm | rain 24hr cm | rain mn cm | humidity % | barometer mb |
| 20260502234017 | 18 | 225 | 1.6 | 8.0 | 0.00 | 0.00 | 0.00 | 28 | 1009.5 |
| 20260502233537 | 18 | 225 | 3.2 | 12.9 | 0.00 | 0.00 | 0.00 | 27 | 1009.6 |
| 20260502233017 | 18 | 248 | 4.8 | 14.5 | 0.00 | 0.00 | 0.00 | 27 | 1009.6 |
| 20260502232517 | 18 | 270 | 3.2 | 12.9 | 0.00 | 0.00 | 0.00 | 27 | 1009.6 |
| 20260502232017 | 18 | 203 | 4.8 | 20.9 | 0.00 | 0.00 | 0.00 | 27 | 1009.8 |
| 20260502231558 | 18 | 203 | 1.6 | 8.0 | 0.00 | 0.00 | 0.00 | 27 | 1009.7 |
| 20260502231017 | 18 | 248 | 1.6 | 4.8 | 0.00 | 0.00 | 0.00 | 27 | 1009.7 |
| 20260502230517 | 18 | 203 | 1.6 | 4.8 | 0.00 | 0.00 | 0.00 | 27 | 1009.7 |
| 20260502230017 | 18 | 203 | 1.6 | 6.4 | 0.00 | 0.00 | 0.00 | 27 | 1009.6 |
| 20260502225538 | 18 | 203 | 1.6 | 3.2 | 0.00 | 0.00 | 0.00 | 26 | 1009.7 |
| 20260502225037 | 18 | 0.0 | 3.2 | 0.00 | 0.00 | 0.00 | 28 | 1009.8 | |
| 20260502224517 | 18 | 0.0 | 3.2 | 0.00 | 0.00 | 0.00 | 26 | 1009.8 | |
| 20260502224017 | 18 | 248 | 1.6 | 3.2 | 0.00 | 0.00 | 0.00 | 28 | 1009.9 |
| 20260502223517 | 18 | 203 | 1.6 | 6.4 | 0.00 | 0.00 | 0.00 | 26 | 1009.9 |
| 20260502223017 | 18 | 248 | 1.6 | 4.8 | 0.00 | 0.00 | 0.00 | 26 | 1010.1 |
| 20260502222517 | 18 | 203 | 1.6 | 3.2 | 0.00 | 0.00 | 0.00 | 25 | 1010.1 |
| 20260502222016 | 18 | 0.0 | 1.6 | 0.00 | 0.00 | 0.00 | 26 | 1010.2 | |
| 20260502221517 | 18 | 203 | 1.6 | 4.8 | 0.00 | 0.00 | 0.00 | 26 | 1010.2 |
| 20260502221017 | 18 | 248 | 3.2 | 9.7 | 0.00 | 0.00 | 0.00 | 25 | 1010.2 |
| 20260502220517 | 18 | 203 | 3.2 | 8.0 | 0.00 | 0.00 | 0.00 | 25 | 1010.3 |
| 20260502220016 | 18 | 225 | 4.8 | 9.7 | 0.00 | 0.00 | 0.00 | 24 | 1010.3 |
| 20260502215517 | 18 | 270 | 4.8 | 14.5 | 0.00 | 0.00 | 0.00 | 24 | 1010.4 |
| 20260502215017 | 18 | 270 | 4.8 | 11.3 | 0.00 | 0.00 | 0.00 | 24 | 1010.6 |
| 20260502214516 | 18 | 248 | 4.8 | 11.3 | 0.00 | 0.00 | 0.00 | 24 | 1010.6 |
| 20260502214017 | 18 | 248 | 1.6 | 9.7 | 0.00 | 0.00 | 0.00 | 25 | 1010.7 |
| 20260502213517 | 18 | 248 | 4.8 | 16.1 | 0.00 | 0.00 | 0.00 | 24 | 1010.8 |
| 20260502213017 | 18 | 225 | 4.8 | 11.3 | 0.00 | 0.00 | 0.00 | 24 | 1010.8 |
| 20260502212516 | 18 | 248 | 6.4 | 12.9 | 0.00 | 0.00 | 0.00 | 23 | 1010.9 |
| 20260502212016 | 19 | 248 | 6.4 | 16.1 | 0.00 | 0.00 | 0.00 | 24 | 1011.0 |
| 20260502211516 | 19 | 203 | 4.8 | 14.5 | 0.00 | 0.00 | 0.00 | 23 | 1011.1 |
| 20260502211016 | 20 | 293 | 3.2 | 12.9 | 0.00 | 0.00 | 0.00 | 23 | 1011.3 |
| 20260502210518 | 20 | 225 | 3.2 | 8.0 | 0.00 | 0.00 | 0.00 | 23 | 1011.3 |
| 20260502210017 | 20 | 225 | 8.0 | 14.5 | 0.00 | 0.00 | 0.00 | 23 | 1011.4 |
| 20260502205536 | 20 | 248 | 4.8 | 12.9 | 0.00 | 0.00 | 0.00 | 23 | 1011.5 |
| 20260502205018 | 20 | 203 | 3.2 | 11.3 | 0.00 | 0.00 | 0.00 | 24 | 1011.6 |
| 20260502204517 | 19 | 225 | 4.8 | 12.9 | 0.00 | 0.00 | 0.00 | 24 | 1011.6 |
| 20260502204017 | 19 | 203 | 4.8 | 14.5 | 0.00 | 0.00 | 0.00 | 23 | 1011.8 |
| 20260502203516 | 19 | 225 | 6.4 | 12.9 | 0.00 | 0.00 | 0.00 | 23 | 1012.0 |
| 20260502203017 | 19 | 225 | 6.4 | 17.7 | 0.00 | 0.00 | 0.00 | 23 | 1012.1 |
| 20260502202537 | 19 | 203 | 6.4 | 17.7 | 0.00 | 0.00 | 0.00 | 23 | 1012.1 |
| 20260502202016 | 18 | 203 | 4.8 | 12.9 | 0.00 | 0.00 | 0.00 | 23 | 1012.3 |
| 20260502201537 | 18 | 270 | 1.6 | 8.0 | 0.00 | 0.00 | 0.00 | 26 | 1012.4 |
| 20260502201016 | 18 | 248 | 3.2 | 8.0 | 0.00 | 0.00 | 0.00 | 25 | 1012.6 |
| 20260502200516 | 18 | 203 | 6.4 | 16.1 | 0.00 | 0.00 | 0.00 | 26 | 1012.6 |
| 20260502200017 | 17 | 203 | 8.0 | 14.5 | 0.00 | 0.00 | 0.00 | 25 | 1012.8 |
| 20260502195517 | 17 | 248 | 6.4 | 12.9 | 0.00 | 0.00 | 0.00 | 24 | 1012.9 |
| 20260502195037 | 18 | 225 | 6.4 | 16.1 | 0.00 | 0.00 | 0.00 | 24 | 1013.0 |
| 20260502194516 | 18 | 225 | 4.8 | 11.3 | 0.00 | 0.00 | 0.00 | 24 | 1013.0 |
| 20260502194016 | 17 | 225 | 3.2 | 11.3 | 0.00 | 0.00 | 0.00 | 26 | 1013.0 |
| 20260502193558 | 17 | 203 | 4.8 | 8.0 | 0.00 | 0.00 | 0.00 | 25 | 1013.2 |
| 20260502193016 | 17 | 203 | 4.8 | 9.7 | 0.00 | 0.00 | 0.00 | 27 | 1013.3 |
| 20260502192516 | 17 | 248 | 4.8 | 12.9 | 0.00 | 0.00 | 0.00 | 26 | 1013.3 |
| 20260502192016 | 16 | 203 | 6.4 | 14.5 | 0.00 | 0.00 | 0.00 | 25 | 1013.5 |
| 20260502191517 | 16 | 203 | 1.6 | 8.0 | 0.00 | 0.00 | 0.00 | 26 | 1013.6 |
| 20260502191037 | 16 | 203 | 4.8 | 8.0 | 0.00 | 0.00 | 0.00 | 26 | 1013.8 |
| 20260502190516 | 16 | 248 | 4.8 | 11.3 | 0.00 | 0.00 | 0.00 | 25 | 1013.7 |
| 20260502190036 | 16 | 225 | 4.8 | 9.7 | 0.00 | 0.00 | 0.00 | 25 | 1013.8 |
| 20260502185516 | 16 | 225 | 3.2 | 9.7 | 0.00 | 0.00 | 0.00 | 25 | 1013.9 |
| 20260502185036 | 16 | 203 | 6.4 | 19.3 | 0.00 | 0.00 | 0.00 | 27 | 1014.1 |
| 20260502184516 | 16 | 203 | 6.4 | 14.5 | 0.00 | 0.00 | 0.00 | 26 | 1014.1 |
| 20260502184036 | 16 | 248 | 6.4 | 12.9 | 0.00 | 0.00 | 0.00 | 26 | 1014.2 |
| 20260502183516 | 16 | 203 | 3.2 | 6.4 | 0.00 | 0.00 | 0.00 | 27 | 1014.3 |
| 20260502183016 | 16 | 203 | 3.2 | 8.0 | 0.00 | 0.00 | 0.00 | 27 | 1014.3 |
| 20260502182516 | 16 | 203 | 3.2 | 8.0 | 0.00 | 0.00 | 0.00 | 25 | 1014.6 |
| 20260502182016 | 16 | 203 | 4.8 | 9.7 | 0.00 | 0.00 | 0.00 | 25 | 1014.6 |
| 20260502181516 | 16 | 270 | 4.8 | 12.9 | 0.00 | 0.00 | 0.00 | 27 | 1014.7 |
| 20260502181017 | 16 | 225 | 4.8 | 11.3 | 0.00 | 0.00 | 0.00 | 25 | 1014.7 |
| 20260502180517 | 15 | 203 | 3.2 | 11.3 | 0.00 | 0.00 | 0.00 | 26 | 1014.8 |
| 20260502170516 | 14 | 225 | 4.8 | 11.3 | 0.00 | 0.00 | 0.00 | 27 | 1015.8 |
| 20260502164056 | 13 | 203 | 3.2 | 8.0 | 0.00 | 0.00 | 0.00 | 28 | 1016.3 |
| 20260502163516 | 13 | 248 | 4.8 | 11.3 | 0.00 | 0.00 | 0.00 | 28 | 1016.3 |
| 20260502163016 | 13 | 225 | 4.8 | 11.3 | 0.00 | 0.00 | 0.00 | 26 | 1016.4 |
| 20260502162537 | 13 | 203 | 3.2 | 9.7 | 0.00 | 0.00 | 0.00 | 30 | 1016.5 |
| 20260502162036 | 13 | 248 | 4.8 | 16.1 | 0.00 | 0.00 | 0.00 | 28 | 1016.5 |
| 20260502161516 | 13 | 338 | 3.2 | 8.0 | 0.00 | 0.00 | 0.00 | 30 | 1016.5 |
| 20260502161016 | 13 | 203 | 3.2 | 9.7 | 0.00 | 0.00 | 0.00 | 29 | 1016.6 |
| 20260502160536 | 13 | 225 | 4.8 | 11.3 | 0.00 | 0.00 | 0.00 | 27 | 1016.8 |
| 20260502152017 | 12 | 248 | 3.2 | 14.5 | 0.00 | 0.00 | 0.00 | 35 | 1017.2 |
| 20260502151537 | 12 | 248 | 4.8 | 11.3 | 0.00 | 0.00 | 0.00 | 33 | 1017.2 |
| 20260502151018 | 11 | 270 | 1.6 | 6.4 | 0.00 | 0.00 | 0.00 | 35 | 1017.2 |
| 20260502150537 | 11 | 225 | 3.2 | 9.7 | 0.00 | 0.00 | 0.00 | 36 | 1017.2 |
| 20260502130516 | 6 | 248 | 3.2 | 8.0 | 0.00 | 0.00 | 0.00 | 53 | 1017.9 |
| 20260502123517 | 4 | 248 | 1.6 | 6.4 | 0.00 | 0.00 | 0.00 | 61 | 1017.8 |
| 20260502123018 | 3 | 0.0 | 3.2 | 0.00 | 0.00 | 0.00 | 64 | 1017.7 | |
| 20260502122536 | 3 | 270 | 1.6 | 6.4 | 0.00 | 0.00 | 0.00 | 64 | 1017.7 |
| 20260502122016 | 3 | 0.0 | 3.2 | 0.00 | 0.00 | 0.00 | 64 | 1017.7 | |
| 20260502121517 | 3 | 248 | 1.6 | 4.8 | 0.00 | 0.00 | 0.00 | 65 | 1017.7 |
| 20260502121016 | 2 | 0.0 | 3.2 | 0.00 | 0.00 | 0.00 | 65 | 1017.6 | |
| 20260502120517 | 2 | 0.0 | 3.2 | 0.00 | 0.00 | 0.00 | 66 | 1017.6 | |
| 20260502115517 | 2 | 0.0 | 3.2 | 0.00 | 0.00 | 0.00 | 66 | 1017.7 | |
| 20260502115017 | 2 | 270 | 1.6 | 3.2 | 0.00 | 0.00 | 0.00 | 66 | 1017.7 |
| 20260502114516 | 2 | 0.0 | 3.2 | 0.00 | 0.00 | 0.00 | 66 | 1017.7 | |
| 20260502114037 | 2 | 0.0 | 3.2 | 0.00 | 0.00 | 0.00 | 66 | 1017.7 | |
| 20260502113517 | 2 | 0.0 | 3.2 | 0.00 | 0.00 | 0.00 | 66 | 1017.6 | |
| 20260502113016 | 2 | 248 | 1.6 | 3.2 | 0.00 | 0.00 | 0.00 | 66 | 1017.6 |
| 20260502112516 | 2 | 248 | 1.6 | 3.2 | 0.00 | 0.00 | 0.00 | 67 | 1017.7 |
| 20260502112016 | 1 | 248 | 1.6 | 3.2 | 0.00 | 0.00 | 0.00 | 67 | 1017.6 |
| 20260502111516 | 1 | 0.0 | 3.2 | 0.00 | 0.00 | 0.00 | 67 | 1017.5 | |
| 20260502111017 | 1 | 0.0 | 3.2 | 0.00 | 0.00 | 0.00 | 67 | 1017.5 | |
| 20260502110516 | 1 | 248 | 1.6 | 3.2 | 0.00 | 0.00 | 0.00 | 66 | 1017.5 |
| 20260502110016 | 1 | 0.0 | 3.2 | 0.00 | 0.00 | 0.00 | 65 | 1017.5 | |
| 20260502105517 | 1 | 0.0 | 3.2 | 0.00 | 0.00 | 0.00 | 65 | 1017.4 | |
| 20260502105016 | 2 | 0.0 | 3.2 | 0.00 | 0.00 | 0.00 | 64 | 1017.6 | |
| 20260502104516 | 2 | 0.0 | 1.6 | 0.00 | 0.00 | 0.00 | 64 | 1017.5 | |
| 20260502104016 | 2 | 0.0 | 3.2 | 0.00 | 0.00 | 0.00 | 63 | 1017.5 | |
| 20260502103516 | 2 | 0.0 | 1.6 | 0.00 | 0.00 | 0.00 | 63 | 1017.5 | |
| 20260502103016 | 2 | 0.0 | 3.2 | 0.00 | 0.00 | 0.00 | 62 | 1017.6 | |
| 20260502102516 | 2 | 0.0 | 0.0 | 0.00 | 0.00 | 0.00 | 60 | 1017.7 | |
| 20260502102038 | 2 | 0.0 | 0.0 | 0.00 | 0.00 | 0.00 | 60 | 1017.7 | |
| 20260502101517 | 3 | 0.0 | 0.0 | 0.00 | 0.00 | 0.00 | 60 | 1017.7 | |
| 20260502101036 | 3 | 0.0 | 0.0 | 0.00 | 0.00 | 0.00 | 59 | 1017.7 | |
| 20260502100538 | 3 | 0.0 | 0.0 | 0.00 | 0.00 | 0.00 | 58 | 1017.7 | |
| 20260502091517 | 3 | 248 | 1.6 | 4.8 | 0.00 | 0.00 | 0.00 | 56 | 1017.5 |
| 20260502091017 | 3 | 248 | 1.6 | 3.2 | 0.00 | 0.00 | 0.00 | 56 | 1017.4 |
| 20260502090516 | 3 | 248 | 1.6 | 4.8 | 0.00 | 0.00 | 0.00 | 56 | 1017.4 |
| 20260502071517 | 5 | 248 | 3.2 | 6.4 | 0.00 | 0.00 | 0.00 | 49 | 1017.5 |
| 20260502071016 | 5 | 248 | 1.6 | 4.8 | 0.00 | 0.00 | 0.00 | 50 | 1017.5 |
| 20260502070517 | 5 | 248 | 3.2 | 4.8 | 0.00 | 0.00 | 0.00 | 50 | 1017.5 |
| 20260502070016 | 5 | 248 | 1.6 | 6.4 | 0.00 | 0.00 | 0.00 | 50 | 1017.6 |
| 20260502065517 | 5 | 248 | 1.6 | 8.0 | 0.00 | 0.00 | 0.00 | 50 | 1017.6 |
| 20260502065016 | 5 | 248 | 1.6 | 8.0 | 0.00 | 0.00 | 0.00 | 50 | 1017.6 |
| 20260502064516 | 5 | 248 | 1.6 | 4.8 | 0.00 | 0.00 | 0.00 | 50 | 1017.6 |
| 20260502064015 | 5 | 0.0 | 3.2 | 0.00 | 0.00 | 0.00 | 49 | 1017.7 | |
| 20260502063516 | 5 | 248 | 1.6 | 4.8 | 0.00 | 0.00 | 0.00 | 49 | 1017.7 |
| 20260502063015 | 5 | 248 | 1.6 | 3.2 | 0.00 | 0.00 | 0.00 | 49 | 1017.7 |
| 20260502062515 | 5 | 0.0 | 3.2 | 0.00 | 0.00 | 0.00 | 48 | 1017.7 | |
| 20260502062015 | 5 | 0.0 | 3.2 | 0.00 | 0.00 | 0.00 | 47 | 1017.7 | |
| 20260502061516 | 5 | 0.0 | 3.2 | 0.00 | 0.00 | 0.00 | 47 | 1017.7 | |
| 20260502061016 | 5 | 0.0 | 3.2 | 0.00 | 0.00 | 0.00 | 47 | 1017.7 | |
| 20260502060515 | 5 | 0.0 | 3.2 | 0.00 | 0.00 | 0.00 | 47 | 1017.8 | |
| 20260502060015 | 6 | 0.0 | 3.2 | 0.00 | 0.00 | 0.00 | 47 | 1017.7 | |
| 20260502055515 | 6 | 248 | 1.6 | 3.2 | 0.00 | 0.00 | 0.00 | 46 | 1017.8 |
| 20260502055016 | 6 | 0.0 | 3.2 | 0.00 | 0.00 | 0.00 | 46 | 1017.7 | |
| 20260502054515 | 6 | 0.0 | 3.2 | 0.00 | 0.00 | 0.00 | 46 | 1017.8 | |
| 20260502054015 | 6 | 0.0 | 3.2 | 0.00 | 0.00 | 0.00 | 47 | 1017.9 | |
| 20260502053516 | 6 | 0.0 | 3.2 | 0.00 | 0.00 | 0.00 | 47 | 1017.9 | |
| 20260502053015 | 6 | 0.0 | 3.2 | 0.00 | 0.00 | 0.00 | 46 | 1017.9 | |
| 20260502052537 | 6 | 0.0 | 4.8 | 0.00 | 0.00 | 0.00 | 45 | 1017.8 | |
| 20260502052017 | 6 | 0.0 | 3.2 | 0.00 | 0.00 | 0.00 | 45 | 1017.8 | |
| 20260502051517 | 6 | 248 | 1.6 | 4.8 | 0.00 | 0.00 | 0.00 | 45 | 1017.8 |
| 20260502051037 | 6 | 0.0 | 3.2 | 0.00 | 0.00 | 0.00 | 45 | 1017.8 | |
| 20260502050538 | 6 | 225 | 1.6 | 4.8 | 0.00 | 0.00 | 0.00 | 45 | 1017.8 |
| 20260502050016 | 6 | 270 | 1.6 | 6.4 | 0.00 | 0.00 | 0.00 | 45 | 1017.8 |
| 20260502045517 | 6 | 248 | 1.6 | 4.8 | 0.00 | 0.00 | 0.00 | 45 | 1017.8 |
| 20260502045017 | 6 | 248 | 1.6 | 3.2 | 0.00 | 0.00 | 0.00 | 46 | 1017.7 |
| 20260502044517 | 6 | 0.0 | 3.2 | 0.00 | 0.00 | 0.00 | 46 | 1017.6 | |
| 20260502044017 | 6 | 0.0 | 3.2 | 0.00 | 0.00 | 0.00 | 46 | 1017.6 | |
| 20260502043517 | 6 | 0.0 | 3.2 | 0.00 | 0.00 | 0.00 | 47 | 1017.6 | |
| 20260502043017 | 6 | 0.0 | 1.6 | 0.00 | 0.00 | 0.00 | 47 | 1017.6 | |
| 20260502042517 | 6 | 0.0 | 4.8 | 0.00 | 0.00 | 0.00 | 47 | 1017.7 | |
| 20260502042017 | 6 | 0.0 | 1.6 | 0.00 | 0.00 | 0.00 | 47 | 1017.7 | |
| 20260502041517 | 6 | 0.0 | 3.2 | 0.00 | 0.00 | 0.00 | 47 | 1017.7 | |
| 20260502041018 | 6 | 0.0 | 3.2 | 0.00 | 0.00 | 0.00 | 46 | 1017.7 | |
| 20260502040517 | 6 | 0.0 | 3.2 | 0.00 | 0.00 | 0.00 | 46 | 1017.7 | |
| 20260502040017 | 6 | 0.0 | 1.6 | 0.00 | 0.00 | 0.00 | 46 | 1017.7 | |
| 20260502035538 | 6 | 0.0 | 3.2 | 0.00 | 0.00 | 0.00 | 45 | 1017.7 | |
| 20260502035017 | 6 | 0.0 | 3.2 | 0.00 | 0.00 | 0.00 | 45 | 1017.7 | |
| 20260502034518 | 6 | 0.0 | 3.2 | 0.00 | 0.00 | 0.00 | 44 | 1017.7 | |
| 20260502034018 | 6 | 0.0 | 3.2 | 0.00 | 0.00 | 0.00 | 44 | 1017.7 | |
| 20260502033517 | 6 | 0.0 | 3.2 | 0.00 | 0.00 | 0.00 | 43 | 1017.7 | |
| 20260502033017 | 7 | 0.0 | 3.2 | 0.00 | 0.00 | 0.00 | 42 | 1017.7 | |
| 20260502032518 | 7 | 0.0 | 3.2 | 0.00 | 0.00 | 0.00 | 42 | 1017.7 | |
| 20260502032017 | 7 | 0.0 | 3.2 | 0.00 | 0.00 | 0.00 | 40 | 1017.7 | |
| 20260502031517 | 7 | 225 | 1.6 | 3.2 | 0.00 | 0.00 | 0.00 | 40 | 1017.7 |
| 20260502031017 | 7 | 0.0 | 3.2 | 0.00 | 0.00 | 0.00 | 40 | 1017.7 | |
| 20260502030537 | 7 | 0.0 | 3.2 | 0.00 | 0.00 | 0.00 | 40 | 1017.7 | |
| 20260502030017 | 7 | 0.0 | 1.6 | 0.00 | 0.00 | 0.00 | 40 | 1017.7 | |
| 20260502025517 | 7 | 0.0 | 3.2 | 0.00 | 0.00 | 0.00 | 40 | 1017.7 | |
| 20260502025037 | 7 | 0.0 | 3.2 | 0.00 | 0.00 | 0.00 | 40 | 1017.7 | |
| 20260502024517 | 7 | 225 | 1.6 | 3.2 | 0.00 | 0.00 | 0.00 | 40 | 1017.7 |
| 20260502024038 | 7 | 248 | 1.6 | 6.4 | 0.00 | 0.00 | 0.00 | 40 | 1017.7 |
| 20260502023517 | 7 | 0.0 | 3.2 | 0.00 | 0.00 | 0.00 | 40 | 1017.7 | |
| 20260502023017 | 7 | 0.0 | 0.0 | 0.00 | 0.00 | 0.00 | 39 | 1017.7 | |
| 20260502022517 | 7 | 0.0 | 0.0 | 0.00 | 0.00 | 0.00 | 37 | 1017.6 | |
| 20260502022017 | 8 | 0.0 | 0.0 | 0.00 | 0.00 | 0.00 | 37 | 1017.6 | |
| 20260502021540 | 8 | 0.0 | 0.0 | 0.00 | 0.00 | 0.00 | 37 | 1017.6 | |
| 20260502021017 | 8 | 0.0 | 1.6 | 0.00 | 0.00 | 0.00 | 36 | 1017.6 | |
| 20260502020517 | 8 | 0.0 | 0.0 | 0.00 | 0.00 | 0.00 | 35 | 1017.5 | |
| 20260502020016 | 8 | 0.0 | 0.0 | 0.00 | 0.00 | 0.00 | 34 | 1017.5 | |
| 20260502015558 | 9 | 0.0 | 0.0 | 0.00 | 0.00 | 0.00 | 32 | 1017.4 | |
| 20260502015058 | 9 | 0.0 | 3.2 | 0.00 | 0.00 | 0.00 | 30 | 1017.3 | |
| 20260502014516 | 9 | 0.0 | 1.6 | 0.00 | 0.00 | 0.00 | 30 | 1017.2 | |
| 20260502014016 | 10 | 0.0 | 0.0 | 0.00 | 0.00 | 0.00 | 29 | 1017.2 | |
| 20260502013518 | 10 | 0.0 | 1.6 | 0.00 | 0.00 | 0.00 | 29 | 1017.1 | |
| 20260502013038 | 10 | 0.0 | 0.0 | 0.00 | 0.00 | 0.00 | 28 | 1017.2 | |
| 20260502012516 | 10 | 0.0 | 3.2 | 0.00 | 0.00 | 0.00 | 27 | 1017.2 | |
| 20260502012017 | 10 | 0.0 | 3.2 | 0.00 | 0.00 | 0.00 | 27 | 1017.2 | |
| 20260502011517 | 10 | 0.0 | 3.2 | 0.00 | 0.00 | 0.00 | 27 | 1017.1 | |
| 20260502011016 | 11 | 0.0 | 3.2 | 0.00 | 0.00 | 0.00 | 27 | 1017.2 | |
| 20260502010516 | 11 | 0.0 | 3.2 | 0.00 | 0.00 | 0.00 | 26 | 1017.2 | |
| 20260502010016 | 11 | 0.0 | 3.2 | 0.00 | 0.00 | 0.00 | 25 | 1017.1 | |
| 20260502005516 | 11 | 0.0 | 3.2 | 0.00 | 0.00 | 0.00 | 25 | 1017.1 | |
| 20260502005017 | 11 | 0.0 | 3.2 | 0.00 | 0.00 | 0.00 | 25 | 1017.1 | |
| 20260502004516 | 11 | 0.0 | 3.2 | 0.00 | 0.00 | 0.00 | 25 | 1017.1 | |
| 20260502004017 | 11 | 0.0 | 3.2 | 0.00 | 0.00 | 0.00 | 25 | 1017.0 | |
| 20260502003517 | 11 | 0.0 | 4.8 | 0.00 | 0.00 | 0.00 | 26 | 1017.1 | |
| 20260502003116 | 11 | 0.0 | 3.2 | 0.00 | 0.00 | 0.00 | 25 | 1017.1 | |
| 20260502002517 | 11 | 0.0 | 3.2 | 0.00 | 0.00 | 0.00 | 25 | 1017.1 | |
| 20260502002016 | 11 | 315 | 1.6 | 4.8 | 0.00 | 0.00 | 0.00 | 24 | 1017.1 |
| 20260502001558 | 12 | 0.0 | 1.6 | 0.00 | 0.00 | 0.00 | 24 | 1017.1 | |
| 20260502001018 | 12 | 0.0 | 3.2 | 0.00 | 0.00 | 0.00 | 26 | 1017.1 | |
| 20260502000517 | 12 | 0.0 | 1.6 | 0.00 | 0.00 | 0.00 | 24 | 1017.1 | |
| 20260502000016 | 12 | 0.0 | 1.6 | 0.00 | 0.00 | 0.00 | 22 | 1017.1 | |
| 20260501235516 | 12 | 0.0 | 3.2 | 0.00 | 0.00 | 0.00 | 25 | 1017.1 | |
| 20260501235016 | 12 | 0.0 | 1.6 | 0.00 | 0.00 | 0.00 | 22 | 1017.1 | |
| 20260501234517 | 12 | 0 | 1.6 | 4.8 | 0.00 | 0.00 | 0.00 | 21 | 1017.2 |